Woodward, OK

1:03 PM CDT on May 26, 2017 (GMT -0500)
West Woodward

Weather History for KWWR - January, 2013

Change the Weather History Date:

Friday, January 11, 2013

  Actual Average (KGAG) Record (KGAG)
Temperature  
Mean Temperature 52 °F -  
Max Temperature 62 °F 44 °F 73 °F (1986)
Min Temperature 41 °F 18 °F -9 °F (1962)
Degree Days  
Heating Degree Days 14    
Growing Degree Days 2 (Base 50)    
Moisture  
Dew Point 35 °F    
Average Humidity 58    
Maximum Humidity 93    
Minimum Humidity 34    
Precipitation  
Precipitation 0.00 in - - ()
Sea Level Pressure  
Sea Level Pressure 29.68 in    
Wind  
Wind Speed 18 mph (SW)    
Max Wind Speed 26 mph    
Max Gust Speed 36 mph    
Visibility 10 miles    
Events      
Averages and records for this station are not official NWS values.
T = Trace of Precipitation, MM = Missing Value Source: NWS Daily Summary

Daily Weather History Graph

Daily Weather History Graph

Search for Another Location

Airport or City:

Trip Planner

Search our weather history database for the weather conditions in past years. The results will help you decide how hot, cold, wet, or windy it might be!

Date:

Astronomy

Jan. 11, 2013 Rise Set
Actual Time 7:49 AM CST 5:42 PM CST
Civil Twilight 7:21 AM CST 6:11 PM CST
Nautical Twilight 6:49 AM CST 6:42 PM CST
Astronomical Twilight 6:18 AM CST 7:13 PM CST
Moon 7:25 AM CST (1/11) 6:00 PM CST (1/11)
Length of Visible Light 10h 49m
Length of Day
9h 52m
Waning Crescent, 0% of the Moon is Illuminated
Jan 11
Waning Crescent
Jan 11
New
Jan 18
First Quarter
Jan 26
Full
Feb 3
Last Quarter

Hourly Weather History & Observations

Time (CST) Temp. Windchill Dew Point Humidity Pressure Visibility Wind Dir Wind Speed Gust Speed Precip Events Conditions
12:15 AM 44.6 °F 37.2 °F 42.8 °F 93% 29.73 in 10.0 mi South 17.3 mph 24.2 mph N/A   Clear
12:35 AM 44.6 °F 36.9 °F 42.8 °F 93% 29.72 in 10.0 mi South 18.4 mph 25.3 mph N/A   Clear
12:55 AM 46.4 °F 38.7 °F 42.8 °F 87% 29.71 in 10.0 mi South 20.7 mph 27.6 mph N/A   Clear
1:15 AM 46.4 °F 38.5 °F 42.8 °F 87% 29.70 in 10.0 mi South 21.9 mph 27.6 mph N/A   Clear
1:35 AM 46.4 °F 38.7 °F 41.0 °F 81% 29.69 in 10.0 mi South 20.7 mph 31.1 mph N/A   Clear
1:55 AM 46.4 °F 38.3 °F 41.0 °F 81% 29.69 in 10.0 mi South 23.0 mph 31.1 mph N/A   Clear
2:15 AM 44.6 °F 37.2 °F 41.0 °F 87% 29.70 in 10.0 mi South 17.3 mph 23.0 mph N/A   Clear
2:35 AM 44.6 °F 37.2 °F 41.0 °F 87% 29.69 in 10.0 mi SSW 17.3 mph 23.0 mph N/A   Clear
2:55 AM 44.6 °F 37.4 °F 41.0 °F 87% 29.69 in 10.0 mi SSW 16.1 mph 23.0 mph N/A   Clear
3:15 AM 44.6 °F 36.9 °F 41.0 °F 87% 29.68 in 10.0 mi South 18.4 mph 25.3 mph N/A   Clear
3:35 AM 44.6 °F 36.9 °F 39.2 °F 81% 29.67 in 10.0 mi SSW 18.4 mph 23.0 mph N/A   Clear
3:55 AM 46.4 °F 39.0 °F 39.2 °F 76% 29.66 in 10.0 mi SSW 19.6 mph - N/A   Clear
4:15 AM 46.4 °F 38.5 °F 39.2 °F 76% 29.65 in 10.0 mi South 21.9 mph 29.9 mph N/A   Clear
4:55 AM 44.6 °F 36.9 °F 37.4 °F 76% 29.63 in 10.0 mi SSW 18.4 mph 23.0 mph N/A   Clear
5:15 AM 44.6 °F 37.2 °F 37.4 °F 76% 29.63 in 10.0 mi SSW 17.3 mph 24.2 mph N/A   Clear
5:35 AM 44.6 °F 37.2 °F 37.4 °F 76% 29.62 in 10.0 mi South 17.3 mph 21.9 mph N/A   Clear
5:55 AM 44.6 °F 37.8 °F 37.4 °F 76% 29.64 in 10.0 mi SSW 15.0 mph - N/A   Clear
6:15 AM 44.6 °F 38.1 °F 37.4 °F 76% 29.64 in 10.0 mi SSW 13.8 mph - N/A   Clear
6:35 AM 46.4 °F 39.5 °F 37.4 °F 71% 29.63 in 10.0 mi SSW 17.3 mph 23.0 mph N/A   Clear
6:55 AM 46.4 °F 38.7 °F 37.4 °F 71% 29.64 in 10.0 mi SSW 20.7 mph 31.1 mph N/A   Clear
7:15 AM 46.4 °F 39.8 °F 37.4 °F 71% 29.65 in 10.0 mi SSW 16.1 mph - N/A   Clear
7:35 AM 44.6 °F 37.2 °F 37.4 °F 76% 29.65 in 10.0 mi South 17.3 mph 23.0 mph N/A   Clear
7:55 AM 44.6 °F 37.2 °F 37.4 °F 76% 29.65 in 10.0 mi SSW 17.3 mph 20.7 mph N/A   Clear
8:15 AM 44.6 °F 37.8 °F 37.4 °F 76% 29.65 in 10.0 mi South 15.0 mph - N/A   Clear
8:35 AM 44.6 °F 38.4 °F 37.4 °F 76% 29.66 in 10.0 mi SSW 12.7 mph - N/A   Clear
9:15 AM 46.4 °F 39.8 °F 37.4 °F 71% 29.65 in 10.0 mi SSW 16.1 mph - N/A   Clear
9:35 AM 48.2 °F - 37.4 °F 66% 29.65 in 10.0 mi SSW 11.5 mph - N/A   Clear
9:55 AM 50.0 °F - 37.4 °F 62% 29.65 in 10.0 mi SSW 15.0 mph 21.9 mph N/A   Clear
10:15 AM 51.8 °F - 37.4 °F 58% 29.65 in 10.0 mi SSW 23.0 mph 31.1 mph N/A   Clear
10:55 AM 51.8 °F - 39.2 °F 62% 29.64 in 10.0 mi SSW 18.4 mph 31.1 mph N/A   Clear
11:15 AM 53.6 °F - 41.0 °F 62% 29.63 in 10.0 mi SW 17.3 mph 26.5 mph N/A   Clear
12:15 PM 57.2 °F - 41.0 °F 55% 29.60 in 10.0 mi SSW 26.5 mph 35.7 mph N/A   Clear
12:35 PM 57.2 °F - 41.0 °F 55% 29.59 in 10.0 mi SSW 23.0 mph 31.1 mph N/A   Clear
12:55 PM 57.2 °F - 41.0 °F 55% 29.58 in 10.0 mi SSW 23.0 mph 29.9 mph N/A   Clear
1:15 PM 59.0 °F - 41.0 °F 51% 29.56 in 10.0 mi SSW 21.9 mph 28.8 mph N/A   Clear
1:35 PM 59.0 °F - 39.2 °F 48% 29.56 in 10.0 mi SSW 21.9 mph 34.5 mph N/A   Clear
1:55 PM 59.0 °F - 37.4 °F 45% 29.56 in 10.0 mi SSW 21.9 mph 31.1 mph N/A   Clear
2:15 PM 59.0 °F - 37.4 °F 45% 29.56 in 10.0 mi SSW 23.0 mph 32.2 mph N/A   Clear
2:35 PM 59.0 °F - 39.2 °F 48% 29.57 in 10.0 mi SSW 21.9 mph 27.6 mph N/A   Clear
2:55 PM 59.0 °F - 39.2 °F 48% 29.58 in 10.0 mi SSW 20.7 mph 27.6 mph N/A   Clear
3:15 PM 59.0 °F - 39.2 °F 48% 29.59 in 10.0 mi SSW 21.9 mph 28.8 mph N/A   Clear
3:55 PM 60.8 °F - 37.4 °F 42% 29.60 in 10.0 mi SSW 20.7 mph 26.5 mph N/A   Clear
4:15 PM 62.6 °F - 37.4 °F 39% 29.60 in 10.0 mi SSW 18.4 mph 31.1 mph N/A   Clear
4:35 PM 62.6 °F - 33.8 °F 34% 29.61 in 10.0 mi SW 21.9 mph 28.8 mph N/A   Clear
4:55 PM 62.6 °F - 33.8 °F 34% 29.62 in 10.0 mi SW 20.7 mph 29.9 mph N/A   Clear
5:15 PM 59.0 °F - 32.0 °F 36% 29.64 in 10.0 mi WSW 16.1 mph 21.9 mph N/A   Clear
5:35 PM 59.0 °F - 32.0 °F 36% 29.65 in 10.0 mi WSW 17.3 mph 24.2 mph N/A   Clear
5:55 PM 57.2 °F - 30.2 °F 36% 29.67 in 10.0 mi West 21.9 mph 28.8 mph N/A   Clear
6:15 PM 55.4 °F - 28.4 °F 36% 29.68 in 10.0 mi WSW 21.9 mph 31.1 mph N/A   Clear
6:35 PM 55.4 °F - 28.4 °F 36% 29.70 in 10.0 mi WSW 19.6 mph 27.6 mph N/A   Clear
6:55 PM 53.6 °F - 28.4 °F 38% 29.72 in 10.0 mi WSW 16.1 mph 23.0 mph N/A   Clear
7:15 PM 53.6 °F - 28.4 °F 38% 29.74 in 10.0 mi WSW 15.0 mph 24.2 mph N/A   Clear
7:35 PM 51.8 °F - 26.6 °F 38% 29.76 in 10.0 mi West 15.0 mph 23.0 mph N/A   Clear
7:55 PM 51.8 °F - 26.6 °F 38% 29.77 in 10.0 mi West 15.0 mph 19.6 mph N/A   Clear
8:15 PM 50.0 °F - 23.0 °F 35% 29.78 in 10.0 mi WSW 13.8 mph 17.3 mph N/A   Clear
8:35 PM 50.0 °F - 23.0 °F 35% 29.79 in 10.0 mi WSW 12.7 mph - N/A   Clear
8:55 PM 48.2 °F - 23.0 °F 37% 29.80 in 10.0 mi WSW 13.8 mph - N/A   Clear
9:15 PM 48.2 °F - 21.2 °F 34% 29.81 in 10.0 mi WSW 12.7 mph - N/A   Clear
9:35 PM 46.4 °F 41.5 °F 21.2 °F 37% 29.81 in 10.0 mi WSW 10.4 mph - N/A   Clear
9:55 PM 46.4 °F 40.1 °F 19.4 °F 34% 29.83 in 10.0 mi West 15.0 mph 20.7 mph N/A   Clear
10:15 PM 46.4 °F 42.4 °F 19.4 °F 34% 29.84 in 10.0 mi West 8.1 mph - N/A   Clear
10:35 PM 44.6 °F 39.2 °F 19.4 °F 37% 29.86 in 10.0 mi West 10.4 mph - N/A   Clear
11:15 PM 42.8 °F 36.2 °F 17.6 °F 36% 29.87 in 10.0 mi NW 12.7 mph - N/A   Clear
11:35 PM 41.0 °F 34.3 °F 21.2 °F 45% 29.87 in 10.0 mi NW 11.5 mph 18.4 mph N/A   Clear
11:55 PM 41.0 °F 34.7 °F 26.6 °F 57% 29.87 in 10.0 mi NW 10.4 mph - N/A   Clear